Regional Weather Roundup
Issued by NWS Burlington, VT

Home | Current Version | Previous Version | Graphics & Text | Print | Product List | Glossary On
Versions: 1 2 3 4 5 6 7 8 9 10 11 12 13 14 15 16 17 18 19 20 21 22 23 24 25 26 27 28 29 30 31 32 33 34 35 36 37 38 39 40 41 42 43 44 45 46 47 48 49 50
000
ASUS41 KBTV 192210
RWRBTV
VERMONT REGIONAL WEATHER ROUNDUP
NATIONAL WEATHER SERVICE BURLINGTON VT
600 PM EDT SUN APR 19 2015

NOTE: "FAIR" INDICATES FEW OR NO CLOUDS BELOW 12,000 FEET WITH NO
SIGNIFICANT WEATHER AND/OR OBSTRUCTIONS TO VISIBILITY.

* THESE REPORTS ARE NOT UNDER NWS QUALITY CONTROL AND/OR DO NOT
  REPORT WEATHER SUCH AS PRECIPITATION AND FOG.

VTZ001>019-192300-
_____VERMONT_____


CITY           SKY/WX    TMP DP  RH WIND       PRES   REMARKS
BURLINGTON     CLEAR     55  27  34 NW9       30.17F
MONTPELIER     CLEAR     55  12  18 CALM      30.20S
MORRISVILLE    CLEAR     56  17  21 CALM      30.18F
ST. JOHNSBURY*   N/A     55  19  24 MISG      30.15F
LYNDONVILLE*     N/A     53  14  21 CALM      30.19S
MIDDLEBURY*      N/A     54  29  38 NW5       30.16S
RUTLAND*       PTCLDY    57  27  30 N6        30.14S
SPRINGFIELD    CLEAR     58  22  24 SE6       30.15S
HIGHGATE*        N/A     52  27  37 NW3       30.19F
NEWPORT*         N/A     50  22  32 N5        30.19S
BENNINGTON     PTCLDY    63  27  25 VRB5      30.12S
SUTTON*          N/A     50 N/A N/A MISG        N/A

_____LAKE CHAMPLAIN_____


CITY           SKY/WX    TMP DP  RH WIND       PRES   REMARKS

$$

NYZ007-026>031-035-052-083-192300-
_____NORTHERN NEW YORK_____


CITY           SKY/WX    TMP DP  RH WIND       PRES   REMARKS
PLATTSBURGH    CLEAR     51  23  33 NE8       30.19S
SARANAC LAKE   PTCLDY    53  12  19 NE10      30.10S
MASSENA        CLEAR     55  26  32 NE18      30.14F
OGDENSBURG*    CLEAR     57  28  33 NE9G16    30.12S
POTSDAM*       CLEAR     55  32  41 E10G17    30.11F
WATERTOWN      PTCLDY    64  25  22 E9        30.05F
FT DRUM        PTCLDY    63  19  18 N1        30.06F
ALBANY         MOCLDY    62  28  27 E3        30.14S
GLENS FALLS    PTCLDY    58  21  24 VRB3      30.14F

$$
NHZ002-005-011-192300-
_____NEW HAMPSHIRE_____


CITY           SKY/WX    TMP DP  RH WIND       PRES   REMARKS
LEBANON        CLEAR     60  24  25 NW5       30.15S
KEENE          PTCLDY    61  21  21 W5        30.16S
MT WASHINGTON  PTCLDY    30  10  43 S7          N/A
PLYMOUTH         N/A     60  29  31 CALM      30.14S
WHITEFIELD     CLEAR     55  16  21 N5        30.16F

$$

_____REGIONAL QUEBEC LOCATIONS_____


CITY           SKY/WX    TMP DP  RH WIND       PRES   REMARKS
MONTREAL       MOCLDY    54  19  26 E9        30.19F
QUEBEC CITY    PTCLDY    54  18  24 W8        30.20S
SHERBROOKE     CLEAR     52  21  30 W7        30.19F

_____REGIONAL ONTARIO LOCATIONS_____


CITY           SKY/WX    TMP DP  RH WIND       PRES   REMARKS
OTTAWA         MOCLDY    54  23  30 E10G18    30.14F

______KEY______
VSB  - VISIBILITY IN MILES
WCI  - WIND CHILL INDEX
HX   - HEAT INDEX
$$
NNNN


USA.gov is the U.S. government's official web portal to all federal, state and local government web resources and services.